CZ-3B DEB, 42471

Orbit data source: Space-Track

CZ-3B DEB, 42471 is space debris in HEO originally from a launch on Mon, 19 Dec 2011 UTC launched from the Xichang Space Center, China (XSC). Debris objects in space refer to the collection of defunct objects orbiting the Earth. Examples of debris include non-operational satellites, rocket bodies, and fragments generated from explosions, collisions, or faulty payload assembly.

Loading next visibility...
Identifier
42471, 2011-077AL
Orbit
HEO
Country
Flag of CNCN / PRC
Related business
Manufacturer
CALT
Mission
Spacecraft
Bus & Motor
Unknown
Mass
Unknown
Launch date (UTC)
2011-12-19 (15 years ago)
Launch vehicle
Unknown
Launch site
Xichang Space Center, China (XSC)
Object type
Payload
Rocket body
Debris
Shape & HBR
Unknown shape, 0.2 m
Radar Cross Section
Medium (>0.1 m² and <1 m²)

Expand to show TLE details & history
Last TLE update: 6 days ago

TLE from 6 days ago
0 CZ-3B DEB
1 42471U 11077AL  26251.29845055  .00000113  00000-0  18143-2 0  9992
2 42471  26.1641 287.6150 7467980 161.7252 256.5249  1.89284859 36268
Epoch: 2026-09-08T07:09Z
TLE epoch observation values (Epoch: 2026-09-08T07:09:46.127Z)
Latitude
-0.00003°
Longitude
-167.13376°
Altitude
35,598.877 km
Speed
2.134 km/s
True Right ascension
19h 10m 42s
True Declination
0° 00' 00"
Sunlit
Object was in daylight at epoch
Visualization orbit readout
Latitude
Unknown
Longitude
Unknown
Altitude
Unknown
Speed
Unknown
Apparent Right ascension
Unknown
Apparent Declination
Unknown
Sunlit
N/A
Visualization observer readout
Local Sidereal Time
16:26:52
Azimuth
Unknown
Elevation
Unknown
Doppler factor
Unknown
Orbital elements
Apogee altitude
41,849.352 km
Perigee altitude
612.538 km
Semi-major axis
27,609.082 km
Eccentricity
0.7468
Inclination
26.1641°
RAAN
287.615°
Arg. of periapsis
161.7252°
True anomaly
198.28693°
Mean anomaly
256.5249°
Eccentric anomaly
225.83253°
Mean motion
0.47311 °/min
Orbital period
760.92 mins
BSTAR
0.0018143
Loading maneuver chart data...
Computing Atmospheric mass density...
Loading historical data...
Loading historical data...
Loading historical data...
Loading historical data...
Loading historical data...
Loading historical data...
Loading historical data...

Documentation

Showing up to 5 results
|